START_TIME,STEP,MOV.,M34,t_acc.,L5,t_acc.,L18,t_acc.,L14,t_acc.
1979-03-08 00:00:22.550 ,4,1,0.,12.0,0.,12.0,0.,12.0,0.,12.0
1979-03-08 00:00:34.550 ,4,1,0.,12.0,0.,12.0,0.,12.0,0.,12.0
1979-03-08 00:00:46.550 ,7,1,0.,12.0,0.,12.0,0.,12.0,0.,12.0
1979-03-08 00:00:58.550 ,7,1,0.,12.0,0.,12.0,0.,12.0,0.,12.0
1979-03-08 00:01:10.550 ,3,1,0.,12.0,0.,12.0,0.,12.0,0.,12.0
1979-03-08 00:01:22.550 ,3,1,0.,12.0,0.,12.0,0.,12.0,0.,12.0
1979-03-08 00:01:34.550 ,0,1,0.,12.0,0.,12.0,0.,12.0,0.,12.0
1979-03-08 00:01:46.550 ,0,1,0.,12.0,0.,12.0,0.,12.0,0.,12.0
1979-03-08 00:01:58.540 ,4,1,0.,12.0,0.,12.0,0.,12.0,0.,12.0
1979-03-08 00:02:10.540 ,4,1,0.,12.0,0.,12.0,0.,12.0,0.,12.0
1979-03-08 00:02:22.540 ,7,1,0.,12.0,0.,12.0,0.,12.0,0.,12.0
1979-03-08 00:02:34.550 ,7,1,0.,12.0,0.,12.0,0.,12.0,0.,12.0
1979-03-08 00:02:46.540 ,3,1,0.,12.0,0.,12.0,0.,12.0,0.,12.0
1979-03-08 00:02:58.550 ,3,1,0.,12.0,0.,12.0,0.,12.0,0.,12.0
1979-03-08 00:03:10.540 ,0,1,0.,12.0,0.,12.0,0.,12.0,0.,12.0
1979-03-08 00:03:22.550 ,0,1,0.,12.0,0.,12.0,0.,12.0,0.,12.0
1979-03-08 00:03:34.540 ,4,1,0.,12.0,0.,12.0,0.,12.0,0.,12.0
1979-03-08 00:03:46.550 ,4,1,0.,12.0,0.,12.0,0.,12.0,0.,12.0
1979-03-08 00:03:58.540 ,7,1,0.,12.0,0.,12.0,0.,12.0,0.,12.0
1979-03-08 00:04:10.540 ,7,1,0.,12.0,0.,12.0,0.,12.0,0.,12.0
1979-03-08 00:04:22.550 ,3,1,0.,12.0,0.,12.0,0.,12.0,0.,12.0
1979-03-08 00:04:34.550 ,3,1,0.,12.0,0.,12.0,0.,12.0,0.,12.0
1979-03-08 00:04:46.550 ,0,1,0.,12.0,0.,12.0,0.,12.0,0.,12.0
1979-03-08 00:04:58.550 ,0,1,0.,12.0,0.,12.0,0.,12.0,0.,12.0
1979-03-08 00:05:10.550 ,4,1,0.,12.0,0.,12.0,0.,12.0,0.,12.0
1979-03-08 00:05:22.550 ,4,1,0.,12.0,0.,12.0,0.,12.0,0.,12.0
1979-03-08 00:05:34.550 ,7,1,0.,12.0,0.,12.0,0.,12.0,0.,12.0
1979-03-08 00:05:46.550 ,7,1,0.,12.0,0.,12.0,0.,12.0,0.,12.0
1979-03-08 00:05:58.550 ,3,1,0.,12.0,0.,12.0,0.,12.0,0.,12.0
1979-03-08 00:06:10.550 ,3,1,0.,12.0,0.,12.0,0.,12.0,0.,12.0
1979-03-08 00:06:22.550 ,0,1,0.,12.0,0.,12.0,0.,12.0,0.,12.0
1979-03-08 00:06:34.550 ,0,1,0.,12.0,0.,12.0,0.,12.0,0.,12.0
1979-03-08 00:06:46.550 ,4,1,0.,12.0,0.,12.0,0.,12.0,0.,12.0
1979-03-08 00:06:58.550 ,4,1,0.,12.0,0.,12.0,0.,12.0,0.,12.0
1979-03-08 00:07:10.550 ,7,1,0.,12.0,0.,12.0,0.,12.0,0.,12.0
1979-03-08 00:07:22.550 ,7,1,0.,12.0,0.,12.0,0.,12.0,0.,12.0
1979-03-08 00:07:34.550 ,3,1,1.,12.0,0.,12.0,0.,12.0,0.,12.0
1979-03-08 00:07:46.550 ,3,1,0.,12.0,0.,12.0,0.,12.0,0.,12.0
1979-03-08 00:07:58.550 ,0,1,0.,12.0,0.,12.0,0.,12.0,0.,12.0
1979-03-08 00:08:10.550 ,0,1,0.,12.0,0.,12.0,0.,12.0,0.,12.0
1979-03-08 00:08:22.550 ,4,1,0.,12.0,0.,12.0,0.,12.0,0.,12.0
1979-03-08 00:08:34.550 ,4,1,0.,12.0,0.,12.0,0.,12.0,0.,12.0
1979-03-08 00:08:46.550 ,7,1,0.,12.0,0.,12.0,0.,12.0,0.,12.0
1979-03-08 00:08:58.550 ,7,1,0.,12.0,0.,12.0,0.,12.0,0.,12.0
1979-03-08 00:09:10.550 ,3,1,0.,12.0,0.,12.0,0.,12.0,0.,12.0
1979-03-08 00:09:22.550 ,3,1,0.,12.0,0.,12.0,0.,12.0,0.,12.0
1979-03-08 00:09:34.550 ,0,1,0.,12.0,0.,12.0,0.,12.0,0.,12.0
1979-03-08 00:09:46.550 ,0,1,0.,12.0,0.,12.0,0.,12.0,0.,12.0
1979-03-08 00:09:58.550 ,4,1,0.,12.0,0.,12.0,0.,12.0,0.,12.0
1979-03-08 00:10:10.550 ,4,1,0.,12.0,0.,12.0,0.,12.0,0.,12.0
1979-03-08 00:10:22.550 ,7,1,0.,12.0,0.,12.0,0.,12.0,0.,12.0
1979-03-08 00:10:34.550 ,7,1,0.,12.0,0.,12.0,0.,12.0,0.,12.0
1979-03-08 00:10:46.550 ,3,1,0.,12.0,0.,12.0,0.,12.0,0.,12.0
1979-03-08 00:10:58.550 ,3,1,0.,12.0,0.,12.0,0.,12.0,0.,12.0
1979-03-08 00:11:10.550 ,0,1,0.,12.0,0.,12.0,0.,12.0,0.,12.0
1979-03-08 00:11:22.550 ,0,1,0.,12.0,0.,12.0,0.,12.0,0.,12.0
1979-03-08 00:11:34.550 ,4,1,0.,12.0,0.,12.0,0.,12.0,0.,12.0
1979-03-08 00:11:46.550 ,4,1,0.,12.0,0.,12.0,0.,12.0,0.,12.0
1979-03-08 00:11:58.550 ,7,1,0.,12.0,0.,12.0,0.,12.0,0.,12.0
1979-03-08 00:12:10.550 ,7,1,0.,12.0,0.,12.0,0.,12.0,0.,12.0
1979-03-08 00:12:22.550 ,3,1,0.,12.0,0.,12.0,0.,12.0,0.,12.0
1979-03-08 00:12:34.550 ,3,1,0.,12.0,0.,12.0,0.,12.0,0.,12.0
1979-03-08 00:12:46.550 ,0,1,0.,12.0,0.,12.0,0.,12.0,0.,12.0
1979-03-08 00:12:58.550 ,0,1,0.,12.0,0.,12.0,0.,12.0,0.,12.0
1979-03-08 00:13:10.550 ,4,1,0.,12.0,0.,12.0,0.,12.0,0.,12.0
1979-03-08 00:13:22.550 ,4,1,0.,12.0,0.,12.0,0.,12.0,0.,12.0
1979-03-08 00:13:34.550 ,7,1,0.,12.0,0.,12.0,0.,12.0,0.,12.0
1979-03-08 00:13:46.550 ,7,1,0.,12.0,0.,12.0,0.,12.0,0.,12.0
1979-03-08 00:13:58.550 ,3,1,0.,12.0,0.,12.0,0.,12.0,0.,12.0
1979-03-08 00:14:10.550 ,3,1,0.,12.0,0.,12.0,0.,12.0,0.,12.0
1979-03-08 00:14:22.550 ,0,1,0.,12.0,0.,12.0,0.,12.0,0.,12.0
1979-03-08 00:14:34.550 ,0,1,0.,12.0,0.,12.0,0.,12.0,0.,12.0
1979-03-08 00:14:46.550 ,4,1,0.,12.0,0.,12.0,0.,12.0,0.,12.0
1979-03-08 00:14:58.550 ,4,1,0.,12.0,0.,12.0,0.,12.0,0.,12.0
1979-03-08 00:15:10.550 ,7,1,0.,12.0,0.,12.0,0.,12.0,0.,12.0
1979-03-08 00:15:22.550 ,7,1,0.,12.0,0.,12.0,0.,12.0,0.,12.0
1979-03-08 00:15:34.550 ,3,1,0.,12.0,0.,12.0,0.,12.0,0.,12.0
1979-03-08 00:15:46.550 ,3,1,0.,12.0,0.,12.0,0.,12.0,0.,12.0
1979-03-08 00:15:58.550 ,0,1,0.,12.0,0.,12.0,0.,12.0,0.,12.0
1979-03-08 00:16:10.550 ,0,1,0.,12.0,0.,12.0,0.,12.0,0.,12.0
1979-03-08 00:16:22.550 ,4,1,0.,12.0,0.,12.0,0.,12.0,0.,12.0
1979-03-08 00:16:34.550 ,4,1,0.,12.0,0.,12.0,0.,12.0,0.,12.0
1979-03-08 00:16:46.550 ,7,1,0.,12.0,0.,12.0,0.,12.0,0.,12.0
1979-03-08 00:16:58.550 ,7,1,0.,12.0,0.,12.0,0.,12.0,0.,12.0
1979-03-08 00:17:10.550 ,3,1,0.,12.0,0.,12.0,0.,12.0,0.,12.0
1979-03-08 00:17:22.550 ,3,1,0.,12.0,0.,12.0,0.,12.0,0.,12.0
1979-03-08 00:17:34.550 ,0,1,0.,12.0,0.,12.0,0.,12.0,0.,12.0
1979-03-08 00:17:46.550 ,0,1,0.,12.0,0.,12.0,0.,12.0,0.,12.0
1979-03-08 00:17:58.550 ,4,1,0.,12.0,0.,12.0,0.,12.0,0.,12.0
1979-03-08 00:18:10.550 ,4,1,0.,12.0,0.,12.0,0.,12.0,0.,12.0
1979-03-08 00:18:22.550 ,7,1,0.,12.0,0.,12.0,0.,12.0,0.,12.0
1979-03-08 00:18:34.550 ,7,1,0.,12.0,0.,12.0,0.,12.0,0.,12.0
1979-03-08 00:18:46.550 ,3,1,0.,12.0,0.,12.0,0.,12.0,0.,12.0
1979-03-08 00:18:58.550 ,3,1,0.,12.0,0.,12.0,0.,12.0,0.,12.0
1979-03-08 00:19:10.550 ,0,1,0.,12.0,0.,12.0,0.,12.0,0.,12.0
1979-03-08 00:19:22.550 ,0,1,0.,12.0,0.,12.0,0.,12.0,0.,12.0
1979-03-08 00:19:34.550 ,4,1,0.,12.0,0.,12.0,0.,12.0,0.,12.0
1979-03-08 00:19:46.550 ,4,1,0.,12.0,0.,12.0,0.,12.0,0.,12.0
1979-03-08 00:19:58.550 ,7,1,0.,12.0,0.,12.0,0.,12.0,0.,12.0
1979-03-08 00:20:10.550 ,7,1,0.,12.0,0.,12.0,0.,12.0,0.,12.0
1979-03-08 00:20:22.550 ,3,1,0.,12.0,0.,12.0,0.,12.0,0.,12.0
1979-03-08 00:20:34.550 ,3,1,0.,12.0,0.,12.0,0.,12.0,0.,12.0
1979-03-08 00:20:46.550 ,0,1,0.,12.0,0.,12.0,0.,12.0,0.,12.0
1979-03-08 00:20:58.550 ,0,1,0.,12.0,0.,12.0,0.,12.0,0.,12.0
1979-03-08 00:21:10.550 ,4,1,0.,12.0,0.,12.0,0.,12.0,0.,12.0
1979-03-08 00:21:22.550 ,4,1,0.,12.0,0.,12.0,0.,12.0,0.,12.0
1979-03-08 00:21:34.550 ,7,1,0.,12.0,0.,12.0,0.,12.0,0.,12.0
1979-03-08 00:21:46.550 ,7,1,0.,12.0,0.,12.0,0.,12.0,0.,12.0
1979-03-08 00:21:58.550 ,3,1,0.,12.0,0.,12.0,0.,12.0,0.,12.0
1979-03-08 00:22:10.550 ,3,1,0.,12.0,0.,12.0,0.,12.0,0.,12.0
1979-03-08 00:22:22.550 ,0,1,0.,12.0,0.,12.0,0.,12.0,0.,12.0
1979-03-08 00:22:34.550 ,0,1,0.,12.0,0.,12.0,0.,12.0,0.,12.0
1979-03-08 00:22:46.550 ,4,1,0.,12.0,0.,12.0,0.,12.0,0.,12.0
1979-03-08 00:22:58.550 ,4,1,0.,12.0,0.,12.0,0.,12.0,0.,12.0
1979-03-08 00:23:10.550 ,7,1,0.,12.0,0.,12.0,0.,12.0,0.,12.0
1979-03-08 00:23:22.550 ,7,1,0.,12.0,0.,12.0,0.,12.0,0.,12.0
1979-03-08 00:23:34.550 ,3,1,0.,12.0,0.,12.0,0.,12.0,0.,12.0
1979-03-08 00:23:46.550 ,3,1,0.,12.0,0.,12.0,0.,12.0,0.,12.0
1979-03-08 00:23:58.550 ,0,1,0.,12.0,0.,12.0,0.,12.0,0.,12.0
1979-03-08 00:24:10.550 ,0,1,0.,12.0,0.,12.0,0.,12.0,0.,12.0
1979-03-08 00:24:22.550 ,4,1,0.,12.0,0.,12.0,0.,12.0,0.,12.0
1979-03-08 00:24:34.550 ,4,1,0.,12.0,0.,12.0,0.,12.0,0.,12.0
1979-03-08 00:24:46.550 ,7,1,0.,12.0,0.,12.0,0.,12.0,0.,12.0
1979-03-08 00:24:58.550 ,7,1,0.,12.0,0.,12.0,0.,12.0,0.,12.0
1979-03-08 00:25:10.550 ,3,1,0.,12.0,0.,12.0,0.,12.0,0.,12.0
1979-03-08 00:25:22.550 ,3,1,0.,12.0,0.,12.0,0.,12.0,0.,12.0
1979-03-08 00:25:34.550 ,0,1,0.,12.0,0.,12.0,0.,12.0,0.,12.0
1979-03-08 00:25:46.550 ,0,1,0.,12.0,0.,12.0,0.,12.0,0.,12.0
1979-03-08 00:25:58.550 ,4,1,0.,12.0,0.,12.0,0.,12.0,0.,12.0
1979-03-08 00:26:10.550 ,4,1,0.,12.0,0.,12.0,0.,12.0,0.,12.0
1979-03-08 00:26:22.550 ,7,1,0.,12.0,0.,12.0,0.,12.0,0.,12.0
1979-03-08 00:26:34.550 ,7,1,0.,12.0,0.,12.0,0.,12.0,0.,12.0
1979-03-08 00:26:46.550 ,3,1,0.,12.0,0.,12.0,0.,12.0,0.,12.0
1979-03-08 00:26:58.550 ,3,1,0.,12.0,0.,12.0,0.,12.0,0.,12.0
1979-03-08 00:27:10.550 ,0,1,0.,12.0,0.,12.0,0.,12.0,0.,12.0
1979-03-08 00:27:22.550 ,0,1,0.,12.0,0.,12.0,0.,12.0,0.,12.0
1979-03-08 00:27:34.550 ,4,1,0.,12.0,0.,12.0,0.,12.0,0.,12.0
1979-03-08 00:27:46.550 ,4,1,0.,12.0,0.,12.0,0.,12.0,0.,12.0
1979-03-08 00:27:58.550 ,7,1,0.,12.0,0.,12.0,0.,12.0,0.,12.0
1979-03-08 00:28:10.550 ,7,1,0.,12.0,0.,12.0,0.,12.0,0.,12.0
1979-03-08 00:28:22.550 ,3,1,0.,12.0,0.,12.0,0.,12.0,0.,12.0
1979-03-08 00:28:34.550 ,3,1,0.,12.0,0.,12.0,0.,12.0,0.,12.0
1979-03-08 00:28:46.550 ,0,1,0.,12.0,0.,12.0,0.,12.0,0.,12.0
1979-03-08 00:28:58.550 ,0,1,0.,12.0,0.,12.0,0.,12.0,0.,12.0
1979-03-08 00:29:10.550 ,4,1,0.,12.0,0.,12.0,0.,12.0,0.,12.0
1979-03-08 00:29:22.550 ,4,1,0.,12.0,0.,12.0,0.,12.0,0.,12.0
1979-03-08 00:29:34.550 ,7,1,0.,12.0,0.,12.0,0.,12.0,0.,12.0
1979-03-08 00:29:46.550 ,7,1,0.,12.0,0.,12.0,0.,12.0,0.,12.0
1979-03-08 00:29:58.550 ,3,1,0.,12.0,0.,12.0,0.,12.0,0.,12.0
1979-03-08 00:30:10.550 ,3,1,0.,12.0,0.,12.0,0.,12.0,0.,12.0
1979-03-08 00:30:22.550 ,0,1,0.,12.0,0.,12.0,0.,12.0,0.,12.0
1979-03-08 00:30:34.550 ,0,1,0.,12.0,0.,12.0,0.,12.0,0.,12.0
1979-03-08 00:30:46.550 ,4,1,0.,12.0,0.,12.0,0.,12.0,0.,12.0
1979-03-08 00:30:58.550 ,4,1,0.,12.0,0.,12.0,0.,12.0,0.,12.0
1979-03-08 00:31:10.550 ,0,0,0.,12.0,0.,12.0,0.,12.0,0.,12.0
1979-03-08 00:31:22.550 ,0,0,0.,12.0,0.,12.0,0.,12.0,0.,12.0
1979-03-08 00:31:34.550 ,3,1,0.,12.0,0.,12.0,0.,12.0,0.,12.0
1979-03-08 00:31:46.550 ,3,1,0.,12.0,0.,12.0,0.,12.0,0.,12.0
1979-03-08 00:31:58.550 ,0,1,0.,12.0,0.,12.0,0.,12.0,0.,12.0
1979-03-08 00:32:10.550 ,0,1,0.,12.0,0.,12.0,0.,12.0,0.,12.0
1979-03-08 00:32:22.550 ,4,1,0.,12.0,0.,12.0,0.,12.0,0.,12.0
1979-03-08 00:32:34.550 ,4,1,0.,12.0,0.,12.0,0.,12.0,0.,12.0
1979-03-08 00:32:46.550 ,7,1,0.,12.0,0.,12.0,0.,12.0,0.,12.0
1979-03-08 00:32:58.550 ,7,1,0.,12.0,0.,12.0,0.,12.0,0.,12.0
1979-03-08 00:33:10.550 ,3,1,0.,12.0,0.,12.0,0.,12.0,0.,12.0
1979-03-08 00:33:22.550 ,3,1,0.,12.0,0.,12.0,0.,12.0,0.,12.0
1979-03-08 00:33:34.550 ,0,1,0.,12.0,0.,12.0,0.,12.0,0.,12.0
1979-03-08 00:33:46.550 ,0,1,0.,12.0,0.,12.0,0.,12.0,0.,12.0
1979-03-08 00:33:58.550 ,4,1,0.,12.0,0.,12.0,0.,12.0,0.,12.0
1979-03-08 00:34:10.550 ,4,1,0.,12.0,0.,12.0,0.,12.0,0.,12.0
1979-03-08 00:34:22.550 ,7,1,0.,12.0,0.,12.0,0.,12.0,0.,12.0
1979-03-08 00:34:34.550 ,7,1,0.,12.0,0.,12.0,0.,12.0,0.,12.0
1979-03-08 00:34:46.550 ,3,1,0.,12.0,0.,12.0,0.,12.0,0.,12.0
1979-03-08 00:34:58.550 ,3,1,0.,12.0,0.,12.0,0.,12.0,0.,12.0
1979-03-08 00:35:10.550 ,0,1,0.,12.0,0.,12.0,0.,12.0,0.,12.0
1979-03-08 00:35:22.550 ,0,1,0.,12.0,0.,12.0,0.,12.0,0.,12.0
1979-03-08 00:35:34.550 ,4,1,0.,12.0,0.,12.0,0.,12.0,0.,12.0
1979-03-08 00:35:46.550 ,4,1,0.,12.0,0.,12.0,0.,12.0,0.,12.0
1979-03-08 00:35:58.550 ,7,1,0.,12.0,0.,12.0,0.,12.0,0.,12.0
1979-03-08 00:36:10.550 ,7,1,0.,12.0,0.,12.0,0.,12.0,0.,12.0
1979-03-08 00:36:22.550 ,0,0,0.,12.0,0.,12.0,0.,12.0,0.,12.0
1979-03-08 00:36:34.550 ,0,0,0.,12.0,0.,12.0,0.,12.0,0.,12.0
1979-03-08 00:36:46.550 ,0,0,0.,12.0,0.,12.0,0.,12.0,0.,12.0
1979-03-08 00:36:58.550 ,0,0,0.,12.0,0.,12.0,0.,12.0,0.,12.0
1979-03-08 00:37:10.550 ,4,1,0.,12.0,0.,12.0,0.,12.0,0.,12.0
1979-03-08 00:37:22.550 ,4,1,0.,12.0,0.,12.0,0.,12.0,0.,12.0
1979-03-08 00:37:34.550 ,7,1,0.,12.0,0.,12.0,0.,12.0,0.,12.0
1979-03-08 00:37:46.550 ,7,1,0.,12.0,0.,12.0,0.,12.0,0.,12.0
1979-03-08 00:37:58.550 ,3,1,0.,12.0,0.,12.0,0.,12.0,0.,12.0
1979-03-08 00:38:10.550 ,3,1,0.,12.0,0.,12.0,0.,12.0,0.,12.0
1979-03-08 00:38:22.550 ,0,1,0.,12.0,0.,12.0,0.,12.0,0.,12.0
1979-03-08 00:38:34.550 ,0,1,0.,12.0,0.,12.0,0.,12.0,0.,12.0
1979-03-08 00:38:46.550 ,0,1,0.,12.0,0.,12.0,0.,12.0,0.,12.0
1979-03-08 00:38:58.550 ,0,1,0.,12.0,0.,12.0,0.,12.0,0.,12.0
1979-03-08 00:39:10.550 ,1,1,0.,12.0,0.,12.0,0.,12.0,0.,12.0
1979-03-08 00:39:22.550 ,1,1,0.,12.0,0.,12.0,0.,12.0,0.,12.0
1979-03-08 00:39:34.550 ,2,1,0.,12.0,0.,12.0,0.,12.0,0.,12.0
1979-03-08 00:39:46.550 ,2,1,0.,12.0,0.,12.0,0.,12.0,0.,12.0
1979-03-08 00:39:58.550 ,3,1,0.,12.0,0.,12.0,0.,12.0,0.,12.0
1979-03-08 00:40:10.550 ,3,1,0.,12.0,0.,12.0,0.,12.0,0.,12.0
1979-03-08 00:40:22.550 ,4,1,0.,12.0,0.,12.0,0.,12.0,0.,12.0
1979-03-08 00:40:34.550 ,4,1,0.,12.0,0.,12.0,0.,12.0,0.,12.0
1979-03-08 00:40:46.550 ,6,1,0.,12.0,0.,12.0,0.,12.0,0.,12.0
1979-03-08 00:40:58.550 ,6,1,0.,12.0,0.,12.0,0.,12.0,0.,12.0
1979-03-08 00:41:10.550 ,6,1,0.,12.0,0.,12.0,0.,12.0,0.,12.0
1979-03-08 00:41:22.550 ,6,1,0.,12.0,0.,12.0,0.,12.0,0.,12.0
1979-03-08 00:41:34.550 ,2,1,0.,12.0,0.,12.0,0.,12.0,0.,12.0
1979-03-08 00:41:46.550 ,2,1,0.,12.0,0.,12.0,0.,12.0,0.,12.0
1979-03-08 00:41:58.550 ,1,1,0.,12.0,0.,12.0,0.,12.0,0.,12.0
1979-03-08 00:42:10.550 ,1,1,0.,12.0,0.,12.0,0.,12.0,0.,12.0
1979-03-08 00:42:22.550 ,0,0,0.,12.0,0.,12.0,0.,12.0,0.,12.0
1979-03-08 00:42:34.550 ,0,0,0.,12.0,0.,12.0,0.,12.0,0.,12.0
1979-03-08 00:42:46.550 ,6,1,0.,12.0,0.,12.0,0.,12.0,0.,12.0
1979-03-08 00:42:58.550 ,6,1,0.,12.0,0.,12.0,0.,12.0,0.,12.0
1979-03-08 00:43:10.550 ,7,1,0.,12.0,0.,12.0,0.,12.0,0.,12.0
1979-03-08 00:43:22.550 ,7,1,0.,12.0,0.,12.0,0.,12.0,0.,12.0
1979-03-08 00:43:34.550 ,7,1,0.,12.0,0.,12.0,0.,12.0,0.,12.0
1979-03-08 00:43:46.550 ,7,1,0.,12.0,0.,12.0,0.,12.0,0.,12.0
1979-03-08 00:43:58.550 ,6,1,0.,12.0,0.,12.0,0.,12.0,0.,12.0
1979-03-08 00:44:10.550 ,6,1,0.,12.0,0.,12.0,0.,12.0,0.,12.0
1979-03-08 00:44:22.550 ,5,1,0.,12.0,0.,12.0,0.,12.0,0.,12.0
1979-03-08 00:44:34.550 ,5,1,0.,12.0,0.,12.0,0.,12.0,0.,12.0
1979-03-08 00:44:46.550 ,0,0,0.,12.0,0.,12.0,0.,12.0,0.,12.0
1979-03-08 00:44:58.550 ,0,0,0.,12.0,0.,12.0,0.,12.0,0.,12.0
1979-03-08 00:45:10.550 ,0,1,0.,12.0,0.,12.0,0.,12.0,0.,12.0
1979-03-08 00:45:22.550 ,0,1,0.,12.0,0.,12.0,0.,12.0,0.,12.0
1979-03-08 00:45:34.550 ,3,1,0.,12.0,0.,12.0,0.,12.0,0.,12.0
1979-03-08 00:45:46.550 ,3,1,0.,12.0,0.,12.0,0.,12.0,0.,12.0
1979-03-08 00:45:58.550 ,7,1,0.,12.0,0.,12.0,0.,12.0,0.,12.0
1979-03-08 00:46:10.550 ,7,1,0.,12.0,0.,12.0,0.,12.0,0.,12.0
1979-03-08 00:46:22.550 ,0,0,0.,12.0,0.,12.0,0.,12.0,0.,12.0
1979-03-08 00:46:34.550 ,0,0,0.,12.0,0.,12.0,0.,12.0,0.,12.0
1979-03-08 00:46:46.550 ,3,1,0.,12.0,0.,12.0,0.,12.0,0.,12.0
1979-03-08 00:46:58.550 ,3,1,0.,12.0,0.,12.0,0.,12.0,0.,12.0
1979-03-08 00:47:10.550 ,2,1,0.,12.0,0.,12.0,0.,12.0,0.,12.0
1979-03-08 00:47:22.550 ,2,1,0.,12.0,0.,12.0,0.,12.0,0.,12.0
1979-03-08 00:47:34.550 ,1,1,0.,12.0,0.,12.0,0.,12.0,0.,12.0
1979-03-08 00:47:46.550 ,1,1,0.,12.0,0.,12.0,0.,12.0,0.,12.0
1979-03-08 00:47:58.550 ,0,1,0.,12.0,0.,12.0,0.,12.0,0.,12.0
1979-03-08 00:48:10.550 ,0,1,0.,12.0,0.,12.0,0.,12.0,0.,12.0
1979-03-08 00:48:22.550 ,0,1,0.,12.0,0.,12.0,0.,12.0,0.,12.0
1979-03-08 00:48:34.550 ,0,1,0.,12.0,0.,12.0,0.,12.0,0.,12.0
1979-03-08 00:48:46.550 ,2,1,0.,12.0,0.,12.0,0.,12.0,0.,12.0
1979-03-08 00:48:58.550 ,2,1,0.,12.0,0.,12.0,0.,12.0,0.,12.0
1979-03-08 00:49:10.550 ,6,1,0.,12.0,0.,12.0,0.,12.0,0.,12.0
1979-03-08 00:49:22.550 ,6,1,0.,12.0,0.,12.0,0.,12.0,0.,12.0
1979-03-08 00:49:34.550 ,5,1,0.,12.0,0.,12.0,0.,12.0,0.,12.0
1979-03-08 00:49:46.550 ,5,1,0.,12.0,0.,12.0,0.,12.0,0.,12.0
1979-03-08 00:49:58.550 ,1,1,0.,12.0,0.,12.0,0.,12.0,0.,12.0
1979-03-08 00:50:10.550 ,1,1,0.,12.0,0.,12.0,0.,12.0,0.,12.0
1979-03-08 00:50:22.550 ,1,1,0.,12.0,0.,12.0,0.,12.0,0.,12.0
1979-03-08 00:50:34.550 ,1,1,0.,12.0,0.,12.0,0.,12.0,0.,12.0
1979-03-08 00:50:46.550 ,2,1,0.,12.0,0.,12.0,0.,12.0,0.,12.0
1979-03-08 00:50:58.550 ,2,1,0.,12.0,0.,12.0,0.,12.0,0.,12.0
1979-03-08 00:51:10.550 ,3,1,0.,12.0,0.,12.0,0.,12.0,0.,12.0
1979-03-08 00:51:22.550 ,3,1,0.,12.0,0.,12.0,0.,12.0,0.,12.0
1979-03-08 00:51:34.550 ,4,1,0.,12.0,0.,12.0,0.,12.0,0.,12.0
1979-03-08 00:51:46.550 ,4,1,0.,12.0,0.,12.0,0.,12.0,0.,12.0
1979-03-08 00:51:58.550 ,5,1,0.,12.0,0.,12.0,0.,12.0,0.,12.0
1979-03-08 00:52:10.550 ,5,1,0.,12.0,0.,12.0,0.,12.0,0.,12.0
1979-03-08 00:52:22.550 ,6,1,0.,12.0,0.,12.0,0.,12.0,0.,12.0
1979-03-08 00:52:34.550 ,6,1,0.,12.0,0.,12.0,0.,12.0,0.,12.0
1979-03-08 00:52:46.550 ,7,1,0.,12.0,0.,12.0,0.,12.0,0.,12.0
1979-03-08 00:52:58.550 ,7,1,0.,12.0,0.,12.0,0.,12.0,0.,12.0
1979-03-08 00:53:10.550 ,3,1,0.,12.0,0.,12.0,0.,12.0,0.,12.0
1979-03-08 00:53:22.550 ,3,1,0.,12.0,0.,12.0,0.,12.0,0.,12.0
1979-03-08 00:53:34.550 ,0,1,0.,12.0,0.,12.0,0.,12.0,0.,12.0
1979-03-08 00:53:46.550 ,0,1,0.,12.0,0.,12.0,0.,12.0,0.,12.0
1979-03-08 00:53:58.550 ,4,1,0.,12.0,0.,12.0,0.,12.0,0.,12.0
1979-03-08 00:54:10.550 ,4,1,0.,12.0,0.,12.0,0.,12.0,0.,12.0
1979-03-08 00:54:22.550 ,7,1,0.,12.0,0.,12.0,0.,12.0,0.,12.0
1979-03-08 00:54:34.550 ,7,1,0.,12.0,0.,12.0,0.,12.0,0.,12.0
1979-03-08 00:54:46.550 ,7,1,0.,12.0,0.,12.0,0.,12.0,0.,12.0
1979-03-08 00:54:58.550 ,7,1,0.,12.0,0.,12.0,0.,12.0,0.,12.0
1979-03-08 00:55:10.550 ,6,1,0.,12.0,0.,12.0,0.,12.0,0.,12.0
1979-03-08 00:55:22.550 ,6,1,0.,12.0,0.,12.0,0.,12.0,0.,12.0
1979-03-08 00:55:34.550 ,5,1,0.,12.0,0.,12.0,0.,12.0,0.,12.0
1979-03-08 00:55:46.550 ,5,1,0.,12.0,0.,12.0,0.,12.0,0.,12.0
1979-03-08 00:55:58.550 ,4,1,0.,12.0,0.,12.0,0.,12.0,0.,12.0
1979-03-08 00:56:10.550 ,4,1,0.,12.0,0.,12.0,0.,12.0,0.,12.0
1979-03-08 00:56:22.550 ,3,1,0.,12.0,0.,12.0,0.,12.0,0.,12.0
1979-03-08 00:56:34.550 ,3,1,0.,12.0,0.,12.0,0.,12.0,0.,12.0
1979-03-08 00:56:46.550 ,2,1,0.,12.0,0.,12.0,0.,12.0,0.,12.0
1979-03-08 00:56:58.550 ,2,1,0.,12.0,0.,12.0,0.,12.0,0.,12.0
1979-03-08 00:57:10.550 ,1,1,0.,12.0,0.,12.0,0.,12.0,0.,12.0
1979-03-08 00:57:22.550 ,1,1,0.,12.0,0.,12.0,0.,12.0,0.,12.0
1979-03-08 00:57:34.550 ,0,0,0.,12.0,0.,12.0,0.,12.0,0.,12.0
1979-03-08 00:57:46.550 ,0,0,0.,12.0,0.,12.0,0.,12.0,0.,12.0
1979-03-08 00:57:58.550 ,0,0,,0,,0,,0,,0
1979-03-08 00:58:10.550 ,0,0,,0,,0,,0,,0
1979-03-08 01:00:02.150 ,0,0,,0,,0,,0,,0
1979-03-08 01:00:14.150 ,0,0,0.,12.0,0.,12.0,0.,12.0,0.,12.0
1979-03-08 01:00:22.550 ,6,1,0.,12.0,0.,12.0,0.,12.0,0.,12.0
1979-03-08 01:00:34.550 ,6,1,0.,12.0,0.,12.0,0.,12.0,0.,12.0
1979-03-08 01:00:46.550 ,7,1,0.,12.0,0.,12.0,0.,12.0,0.,12.0
1979-03-08 01:00:58.550 ,7,1,0.,12.0,0.,12.0,0.,12.0,0.,12.0
1979-03-08 01:01:10.550 ,7,1,0.,12.0,0.,12.0,0.,12.0,0.,12.0
1979-03-08 01:01:22.550 ,7,1,0.,12.0,0.,12.0,0.,12.0,0.,12.0
1979-03-08 01:01:34.550 ,6,1,0.,12.0,0.,12.0,0.,12.0,0.,12.0
1979-03-08 01:01:46.550 ,6,1,0.,12.0,0.,12.0,0.,12.0,0.,12.0
1979-03-08 01:01:58.550 ,5,1,0.,12.0,0.,12.0,0.,12.0,0.,12.0
1979-03-08 01:02:10.550 ,5,1,0.,12.0,0.,12.0,0.,12.0,0.,12.0
1979-03-08 01:02:22.550 ,4,1,0.,12.0,0.,12.0,0.,12.0,0.,12.0
1979-03-08 01:02:34.550 ,4,1,0.,12.0,0.,12.0,0.,12.0,0.,12.0
1979-03-08 01:02:46.550 ,3,1,0.,12.0,0.,12.0,0.,12.0,0.,12.0
1979-03-08 01:02:58.550 ,3,1,0.,12.0,0.,12.0,0.,12.0,0.,12.0
1979-03-08 01:03:10.550 ,2,1,0.,12.0,0.,12.0,0.,12.0,0.,12.0
1979-03-08 01:03:22.550 ,2,1,0.,12.0,0.,12.0,0.,12.0,0.,12.0
1979-03-08 01:03:34.550 ,1,1,0.,12.0,0.,12.0,0.,12.0,0.,12.0
1979-03-08 01:03:46.550 ,1,1,0.,12.0,0.,12.0,0.,12.0,0.,12.0
1979-03-08 01:03:58.550 ,0,1,0.,12.0,0.,12.0,0.,12.0,0.,12.0
1979-03-08 01:04:10.550 ,0,1,0.,12.0,0.,12.0,0.,12.0,0.,12.0
1979-03-08 01:04:22.550 ,0,1,0.,12.0,0.,12.0,0.,12.0,0.,12.0
1979-03-08 01:04:34.550 ,0,1,0.,12.0,0.,12.0,0.,12.0,0.,12.0
1979-03-08 01:04:46.550 ,1,1,0.,12.0,0.,12.0,0.,12.0,0.,12.0
1979-03-08 01:04:58.550 ,1,1,0.,12.0,0.,12.0,0.,12.0,0.,12.0
1979-03-08 01:05:10.550 ,2,1,0.,12.0,0.,12.0,0.,12.0,0.,12.0
1979-03-08 01:05:22.550 ,2,1,0.,12.0,0.,12.0,0.,12.0,0.,12.0
1979-03-08 01:05:34.550 ,3,1,0.,12.0,0.,12.0,0.,12.0,0.,12.0
1979-03-08 01:05:46.550 ,3,1,0.,12.0,0.,12.0,0.,12.0,0.,12.0
1979-03-08 01:05:58.550 ,4,1,0.,12.0,0.,12.0,0.,12.0,0.,12.0
1979-03-08 01:06:10.550 ,4,1,0.,12.0,0.,12.0,0.,12.0,0.,12.0
1979-03-08 01:06:22.550 ,5,1,0.,12.0,0.,12.0,0.,12.0,0.,12.0
1979-03-08 01:06:34.550 ,5,1,0.,12.0,0.,12.0,0.,12.0,0.,12.0
1979-03-08 01:06:46.550 ,6,1,0.,12.0,0.,12.0,0.,12.0,0.,12.0
1979-03-08 01:06:58.550 ,6,1,0.,12.0,0.,12.0,0.,12.0,0.,12.0
1979-03-08 01:07:10.550 ,7,1,0.,12.0,0.,12.0,0.,12.0,0.,12.0
1979-03-08 01:07:22.550 ,7,1,0.,12.0,0.,12.0,0.,12.0,0.,12.0
1979-03-08 01:07:34.550 ,7,1,0.,12.0,0.,12.0,0.,12.0,0.,12.0
1979-03-08 01:07:46.550 ,7,1,0.,12.0,0.,12.0,0.,12.0,0.,12.0
1979-03-08 01:07:58.550 ,6,1,0.,12.0,0.,12.0,0.,12.0,0.,12.0
1979-03-08 01:08:10.550 ,6,1,0.,12.0,0.,12.0,0.,12.0,0.,12.0
1979-03-08 01:08:22.550 ,5,1,0.,12.0,0.,12.0,0.,12.0,0.,12.0
1979-03-08 01:08:34.550 ,5,1,0.,12.0,0.,12.0,0.,12.0,0.,12.0
1979-03-08 01:08:46.550 ,4,1,0.,12.0,0.,12.0,0.,12.0,0.,12.0
1979-03-08 01:08:58.550 ,4,1,0.,12.0,0.,12.0,0.,12.0,0.,12.0
1979-03-08 01:09:10.550 ,3,1,0.,12.0,0.,12.0,0.,12.0,0.,12.0
1979-03-08 01:09:22.550 ,3,1,0.,12.0,0.,12.0,0.,12.0,0.,12.0
1979-03-08 01:09:34.550 ,2,1,0.,12.0,0.,12.0,0.,12.0,0.,12.0
1979-03-08 01:09:46.550 ,2,1,0.,12.0,0.,12.0,0.,12.0,0.,12.0
1979-03-08 01:09:58.550 ,1,1,0.,12.0,0.,12.0,0.,12.0,0.,12.0
1979-03-08 01:10:10.550 ,1,1,1.,12.0,0.,12.0,0.,12.0,0.,12.0
1979-03-08 01:10:22.550 ,0,1,0.,12.0,0.,12.0,0.,12.0,0.,12.0
1979-03-08 01:10:34.550 ,0,1,0.,12.0,0.,12.0,0.,12.0,0.,12.0
1979-03-08 01:10:46.550 ,0,1,0.,12.0,0.,12.0,0.,12.0,0.,12.0
1979-03-08 01:10:58.550 ,0,1,0.,12.0,0.,12.0,0.,12.0,0.,12.0
1979-03-08 01:11:10.550 ,1,1,0.,12.0,0.,12.0,0.,12.0,0.,12.0
1979-03-08 01:11:22.550 ,1,1,0.,12.0,0.,12.0,0.,12.0,0.,12.0
1979-03-08 01:11:34.550 ,2,1,0.,12.0,0.,12.0,0.,12.0,0.,12.0
1979-03-08 01:11:46.550 ,2,1,0.,12.0,0.,12.0,0.,12.0,0.,12.0
1979-03-08 01:11:58.550 ,3,1,0.,12.0,0.,12.0,0.,12.0,0.,12.0
1979-03-08 01:12:10.550 ,3,1,0.,12.0,0.,12.0,0.,12.0,0.,12.0
1979-03-08 01:12:22.550 ,4,1,0.,12.0,0.,12.0,0.,12.0,0.,12.0
1979-03-08 01:12:34.550 ,4,1,0.,12.0,0.,12.0,0.,12.0,0.,12.0
1979-03-08 01:12:46.550 ,5,1,0.,12.0,0.,12.0,0.,12.0,0.,12.0
1979-03-08 01:12:58.550 ,5,1,0.,12.0,0.,12.0,0.,12.0,0.,12.0
1979-03-08 01:13:10.550 ,6,1,0.,12.0,0.,12.0,0.,12.0,0.,12.0
1979-03-08 01:13:22.550 ,6,1,0.,12.0,0.,12.0,0.,12.0,0.,12.0
1979-03-08 01:13:34.550 ,7,1,0.,12.0,0.,12.0,0.,12.0,0.,12.0
1979-03-08 01:13:46.550 ,7,1,0.,12.0,0.,12.0,0.,12.0,0.,12.0
1979-03-08 01:13:58.550 ,7,1,0.,12.0,0.,12.0,0.,12.0,0.,12.0
1979-03-08 01:14:10.550 ,7,1,0.,12.0,0.,12.0,0.,12.0,0.,12.0
1979-03-08 01:14:22.550 ,6,1,0.,12.0,0.,12.0,0.,12.0,0.,12.0
1979-03-08 01:14:34.550 ,6,1,0.,12.0,0.,12.0,0.,12.0,0.,12.0
1979-03-08 01:14:46.550 ,5,1,0.,12.0,0.,12.0,0.,12.0,0.,12.0
1979-03-08 01:14:58.550 ,5,1,0.,12.0,0.,12.0,0.,12.0,0.,12.0
1979-03-08 01:15:10.550 ,4,1,0.,12.0,0.,12.0,0.,12.0,0.,12.0
1979-03-08 01:15:22.550 ,4,1,0.,12.0,0.,12.0,0.,12.0,0.,12.0
1979-03-08 01:15:34.550 ,3,1,0.,12.0,0.,12.0,0.,12.0,0.,12.0
1979-03-08 01:15:46.550 ,3,1,0.,12.0,0.,12.0,0.,12.0,0.,12.0
1979-03-08 01:15:58.550 ,2,1,0.,12.0,0.,12.0,0.,12.0,0.,12.0
1979-03-08 01:16:10.550 ,2,1,0.,12.0,0.,12.0,0.,12.0,0.,12.0
1979-03-08 01:16:22.550 ,1,1,0.,12.0,0.,12.0,0.,12.0,0.,12.0
1979-03-08 01:16:34.550 ,1,1,0.,12.0,0.,12.0,0.,12.0,0.,12.0
1979-03-08 01:16:46.550 ,0,1,0.,12.0,0.,12.0,0.,12.0,0.,12.0
1979-03-08 01:16:58.550 ,0,1,0.,12.0,0.,12.0,0.,12.0,0.,12.0
1979-03-08 01:17:10.550 ,0,1,0.,12.0,0.,12.0,0.,12.0,0.,12.0
1979-03-08 01:17:22.550 ,0,1,0.,12.0,0.,12.0,0.,12.0,0.,12.0
1979-03-08 01:17:34.550 ,1,1,0.,12.0,0.,12.0,0.,12.0,0.,12.0
1979-03-08 01:17:46.550 ,1,1,0.,12.0,0.,12.0,0.,12.0,0.,12.0
1979-03-08 01:17:58.550 ,2,1,0.,12.0,0.,12.0,0.,12.0,0.,12.0
1979-03-08 01:18:10.550 ,2,1,0.,12.0,0.,12.0,0.,12.0,0.,12.0
1979-03-08 01:18:22.550 ,3,1,0.,12.0,0.,12.0,0.,12.0,0.,12.0
1979-03-08 01:18:34.550 ,3,1,0.,12.0,0.,12.0,0.,12.0,0.,12.0
1979-03-08 01:18:46.550 ,4,1,0.,12.0,0.,12.0,0.,12.0,0.,12.0
1979-03-08 01:18:58.550 ,4,1,0.,12.0,0.,12.0,0.,12.0,0.,12.0
1979-03-08 01:19:10.550 ,5,1,0.,12.0,0.,12.0,0.,12.0,0.,12.0